METEOR 2-5

Satellite information

Favourite Embed

Satellite Type and Status

PAYLOADIN ORBIT

Key statistics

Satellite METEOR 2-5 at a glance.

Uptime

16787

Days in orbit

Revolutions

≈ 14.1

Per day

Orbit

LEO

Low Earth Orbit

Inclination

81.2

Latest

Satellite identification and parameters

Extended collection of information and parameters for METEOR 2-5.

Object identification

Identified? True

Debris? False

Object name: METEOR 2-5

International designator: 1979-095A

Object number (NORAD): 11605

Object ID (CCSDS): 11605

Country: COMMONWEALTH OF INDEPENDENT STATES (CIS)

Current information (Y/N): Y

RCS size: LARGE

Orbital parameters

Period: 102.314 minutes

Inclination: 81.2062 deg

SMA: 7246.309 km

Apoapsis: 873.99 km

Periapsis: 862.358 km

RAAN: 109.0283 deg

Eccentricy: 0.00080262

Argument of periapsis: 212.0439 deg

Mean anomaly: 148.0243 deg

Mean motion: 14.07432167 rev/day

Mean motion (dot): 0.00000065 rev/day2

B* drag term: 0.000031575984 1/REarth

Two-line elements (TLE)

Creation date: Oct. 16, 2025, 2:37 a.m.

Reference frame: TEME

Reference center: EARTH

Epoch: Oct. 15, 2025, 10:22 p.m. UTC

TLE line 0: 0 METEOR 2-5

TLE line 1: 1 11605U 79095A 25288.93206753 .00000065 00000-0 31576-4 0 9990

TLE line 2: 2 11605 81.2062 109.0283 0008026 212.0439 148.0243 14.07432167358940

Live tracking on map

Real-time ground track for satellite METEOR 2-5.

In-orbit conjunctions

A list of the most updated potential collisions computed for object METEOR 2-5.

Target Orbit TCA Probability of collision Miss distance Type
FENGYUN 1C DEB SSO 2025-01-17 16:41:01 0.001006125 248.0 (m) DEBRIS
DMSP 5D-2 F13 DEB SSO 2024-11-01 17:36:08 0.0002814247 206.0 (m) DEBRIS
FENGYUN 1C DEB SSO 2024-09-19 08:42:36 0.0001064247 283.0 (m) DEBRIS
DELTA 1 DEB SSO 2024-07-12 03:01:51 0.002947724 123.0 (m) DEBRIS
NOAA 16 DEB SSO 2024-05-29 20:36:54 0.0001525694 855.0 (m) DEBRIS

Associated space launch

Second generation soviet meteorological satellite

METEOR 2-5 was lifted into orbit during the mission ‘Vostok 8A92M | Meteor-2 5’, on board a Vostok 8A92M space rocket.

The launch took place on Oct. 31, 1979, 9:25 a.m. from 43/4 (43R).

For more information about the launch, click the button.

Launch to space Vostok 8A92M | Meteor-2 5
Vostok 8A92M | Meteor-2 5

Agency: N/A

Status: Launch Successful

Launch date: Oct. 31, 1979, 9:25 a.m. UTC

Rocket: Vostok 8A92M

Launch pad: 43/4 (43R)

Location: Plesetsk Cosmodrome, Russian Federation

...

Latest news about this satellite

There are no fresh news available about this satellite. Check back as we update our databases every day.


Newsletter sign-up

Weekly statistics, charts and insights to help you stay on top of the space industry.